STARLINK-32113, 60282

Orbit data source: Space-Track

STARLINK-32113, 60282 is a payload satellite owned by SpaceX/Seattle (US) in LEO that was launched on Sun, 28 Jul 2024 UTC via an FALCON 9 launch vehicle from the Air Force Eastern Test Range (AFETR). Payload-class satellites include a variety of spacecraft equipped with specific instruments for various scientific and technological missions. These include communications satellites like Starlink; space stations such as the ISS; scientific satellites like the Hubble; Earth observation satellites from companies like Planet Labs, Umbra, and HawkEye 360; GPS; miniature CubeSats for education and research; and military/defense satellites.

Loading next visibility...
Identifier
60282, 2024-132E
Orbit
LEO
Country
Flag of USUS
Related business
Manufacturer
SpaceX/Seattle
Mission
Operational Commercial Communications
Bus & Motor
STARLINK V2M, Unknown motor
Mass
730 kg wet, ~700 kg dry
Launch date (UTC)
2024-07-28 (2 years ago)
Launch vehicle
FALCON 9
Launch site
Air Force Eastern Test Range (AFETR)
Object type
Payload
Rocket body
Debris
Shape & HBR
Box + 2 Pan, 17.7 m
Radar Cross Section
33.884 m², Large (>1 m²)

Expand to show TLE details & history
Last TLE update: 11 hours ago

TLE from 11 hours ago
0 STARLINK-32113
1 60282U 24132E   26171.37446985 -.00001305  00000-0 -31953-4 0  9999
2 60282  53.1606 295.3456 0000890  93.7462 266.3641 15.30188429107280
Epoch: 2026-06-20T08:59Z
TLE epoch observation values (Epoch: 2026-06-20T08:59:14.195Z)
Latitude
0.00004°
Longitude
-108.05352°
Altitude
476.188 km
Speed
7.629 km/s
True Right ascension
19h 41m 22s
True Declination
0° 00' 00"
Sunlit
Object was in full shadow at epoch
Visualization orbit readout
Latitude
Unknown
Longitude
Unknown
Altitude
Unknown
Speed
Unknown
Apparent Right ascension
Unknown
Apparent Declination
Unknown
Sunlit
N/A
Visualization observer readout
Local Sidereal Time
07:19:51
Azimuth
Unknown
Elevation
Unknown
Doppler factor
Unknown
Orbital elements
Apogee altitude
476.116 km
Perigee altitude
474.896 km
Semi-major axis
6,853.643 km
Eccentricity
0.00009
Inclination
53.1606°
RAAN
295.3456°
Arg. of periapsis
93.7462°
True anomaly
266.35392°
Mean anomaly
266.3641°
Eccentric anomaly
266.35901°
Mean motion
3.82526 °/min
Orbital period
94.11 mins
BSTAR
-0.000031953
Loading maneuver chart data...
Computing Atmospheric mass density...
Loading historical data...
Loading historical data...
Loading historical data...
Loading historical data...
Loading historical data...
Loading historical data...
Loading historical data...

Documentation

Showing up to 5 results
|